Regional Weather Roundup
Issued by NWS Mobile, AL

Home | Current Version | Previous Version | Text Only | Print | Product List | Glossary On
Versions: 1 2 3 4 5 6 7 8 9 10 11 12 13 14 15 16 17 18 19 20 21 22 23 24 25 26 27
000
ASUS44 KMOB 251912
RWRMOB
REGIONAL WEATHER ROUNDUP
NATIONAL WEATHER SERVICE MOBILE AL
200 PM CDT THU MAY 25 2017

NOTE: "FAIR" INDICATES FEW OR NO CLOUDS BELOW 12,000 FEET WITH NO
      SIGNIFICANT WEATHER AND/OR OBSTRUCTIONS TO VISIBILITY.

  * THESE STATIONS ARE PART OF THE UNIVERSITY OF SOUTH ALABAMA
    MESONET AND ARE NOT UNDER NWS OR FAA QUALITY CONTROL.

ALZ061>064-252000-
COASTAL ALABAMA

CITY           SKY/WX    TMP DP  RH WIND       PRES   REMARKS
MOBILE REG APT SUNNY     77  49  37 NW7G20    29.89F
BROOKLEY FIELD SUNNY     79  50  36 NW8       29.89S
USA CAMPUS*      N/A     79  48  34 CALM      29.88S
DOG RIVER*       N/A     77  50  38 W7        30.59


CITY           SKY/WX    TMP DP  RH WIND       PRES   REMARKS
GULF SHORES    SUNNY     76  53  44 W14G21    29.89R

$$

ALZ051>060-252000-
INTERIOR SOUTHWEST AND SOUTH CENTRAL ALABAMA

CITY           SKY/WX    TMP DP  RH WIND       PRES   REMARKS
GREENVILLE     MOSUNNY   76  48  37 NW12      29.85F
EVERGREEN      MOSUNNY   76  52  43 N8        29.87F
ATMORE*          N/A     75  52  43 NW6       29.88F
ANDALUSIA/OPP  SUNNY     79  50  36 W12G22    29.85F
ANDALUSIA*       N/A     75  50  41 NW14      29.86F
FLORALA APT    SUNNY     76  47  35 VRB7      29.87F
FLORALA*         N/A     77  48  36 SW8       30.52F

$$

FLZ001>006-252000-
WESTERN FLORIDA PANHANDLE

CITY           SKY/WX    TMP DP  RH WIND       PRES   REMARKS
PENSACOLA      SUNNY     81  49  32 W13       29.86S
NAS PENSACOLA  SUNNY     80  46  30 NW9       29.87R
MILTON         MOSUNNY   77  50  38 NW8G17    29.86F
WHTNG S FIELD  MOSUNNY   80  53  39 NW9       29.86F


CITY           SKY/WX    TMP DP  RH WIND       PRES   REMARKS
JAY*             N/A     75  48  38 W5        29.87F
DUKE FIELD     MOSUNNY   78  48  34 NW6G18    29.85F
CRESTVIEW      SUNNY     79  48  33 NW13      29.87F
VALPARAISO     MOSUNNY   79  46  31 NW8       29.86S
DESTIN         SUNNY     80  54  40 SW9G16    29.86S

$$

MSZ076-079-252000-
INTERIOR SOUTHEAST MISSISSIPPI

CITY           SKY/WX    TMP DP  RH WIND       PRES   REMARKS
LEAKESVILLE*   NOT AVBL
AGRICOLA*        N/A     77  50  38 W7        29.88

$$

MARINE OBSERVATIONS

STATION/POSITION TIME  TEMP    WIND        PRES    WAVE
                       AIR SEA DIR/SP/G            HT/PER
                 (UTC) (F)     (DEG/KT/KT) (MB)    (FT/S)
PASCAGOULA       1848   75     250/ 12/ 17 1012.0S
PETIT BOIS ISLND 1848   73     250/ 13/ 15 1013.1R
GRAND BAY        1745   75     290/  8     1013.0S
KATRINA CUT      1830   72     270/ 15     1012.2F
CEDAR POINT      1830   72     250/ 14     1011.5F
E DAUPHIN ISLAND 1800   72     290/ 13/ 15 1011.9F
MIDDLE BAY LIGHT 1830   75     300/  7     1011.5F
USCG MOBILE BAY  1848   76 76  290/ 11/ 14 1012.1F
STATE DOCKS      1842   83 78              1011.4F
MEAHER PARK      1830   74     290/  9     1011.9F
FORT MORGAN      1848   73     260/ 17/ 19   N/A
12 S ORANGE BCH  1750   71 77  290/ 14/ 17 1011.8F   3/ 8
PENSACOLA BAY    1842   78 79              1011.4F
64 S DAUPHIN ISL 1850   74 78  290/ 12/ 14 1012.6F   3/ 7
67 S FORT MORGAN 1830   75        CALM     1012.5F

$$

SELECTED LOCATIONS ACROSS THE REGION

CITY           SKY/WX    TMP DP  RH WIND       PRES   REMARKS
NEW ORLEANS    MOSUNNY   81  55  40 W7        29.89F
GULFPORT       SUNNY     80  53  39 VRB7      29.88S
PASCAGOULA AP  SUNNY     81  48  31 W12G17    29.88S
PASCAGOULA*    NOT AVBL
HATTIESBURG    SUNNY     77  48  35 W14       29.90F
LAUREL         NOT AVBL
MERIDIAN       SUNNY     77  50  38 W10G17    29.87F
JACKSON        SUNNY     76  53  44 S8        29.87F
MONTGOMERY     MOSUNNY   75  50  41 W14       29.86F
TROY           MOSUNNY   75  50  41 NW18G25   29.87S
ASHFORD*         N/A     75  50  41 NW14      29.86F
DOTHAN         MOSUNNY   77  49  37 NW18      29.90R
PANAMA CITY    SUNNY     78  51  38 W5        29.85S

$$





USA.gov is the U.S. government's official web portal to all federal, state and local government web resources and services.